Regional Weather Roundup
Issued by NWS

Home | Current Version | Previous Version | Text Only | Print | Product List | Glossary On
Versions: 1 2 3 4 5 6 7 8 9 10 11 12 13 14 15 16 17 18 19 20 21 22 23 24 25 26 27 28 29 30 31 32 33 34 35 36 37 38 39 40 41 42 43 44 45 46 47 48 49 50
000
ASUS43 KLMK 110202
RWRKY
KENTUCKY REGIONAL WEATHER ROUNDUP
NATIONAL WEATHER SERVICE LOUISVILLE KY
900 PM EST WED FEB 10 2016

NOTE "FAIR" INDICATES FEW OR NO CLOUDS BELOW 12,000 FEET
WITH NO SIGNIFICANT WEATHER AND/OR OBSTRUCTIONS TO VISIBILITY.

KYZ001>023-026-027-061>063-070>075-110300-
WESTERN AND SOUTH CENTRAL KENTUCKY

CITY           SKY/WX    TMP DP  RH WIND       PRES   REMARKS
PADUCAH        CLOUDY    24  19  81 E5        30.18F WCI  18
HENDERSON      CLOUDY    21  16  79 W6        30.19S WCI  14
OWENSBORO      CLOUDY    22  18  85 W10       30.19S WCI  11
HOPKINSVILLE   LGT SNOW  23  20  86 SW2       30.19F
BOWLING GREEN  CLOUDY    24  17  74 W8        30.20R WCI  15
GLASGOW        NOT AVBL
$$

KYZ024-025-028>034-038-045-046-053-110300-
NORTH CENTRAL KENTUCKY

CITY           SKY/WX    TMP DP  RH WIND       PRES   REMARKS
LOUISVILLE/SDF CLOUDY    22   9  57 W9        30.16R WCI  12
LOUISVILLE/LOU CLOUDY    22   9  57 W10       30.16R WCI  11
FORT KNOX      CLOUDY    20  10  67 W3        30.12S
$$

KYZ035>037-039>044-047>052-055>060-089>105-110300-
NORTHEAST KENTUCKY

CITY           SKY/WX    TMP DP  RH WIND       PRES   REMARKS
LEXINGTON      MOCLDY    15   6  67 W5        30.11R WCI   8
COVINGTON      CLOUDY    16   6  65 NW8       30.11R WCI   5
FRANKFORT      PTCLDY    18   7  62 W3        30.12R
$$

KYZ054-064>069-076>088-106>120-110300-
SOUTHEAST KENTUCKY

CITY           SKY/WX    TMP DP  RH WIND       PRES   REMARKS
JACKSON        CLOUDY    16   6  65 SW5       30.09R WCI   9
LONDON         PTCLDY    19   8  62 CALM      30.11R
SOMERSET       NOT AVBL
MIDDLESBORO    MOCLDY    23   8  53 CALM      30.12R
MONTICELLO     CLOUDY    22  12  65 W13       30.16R WCI  10
$$




USA.gov is the U.S. government's official web portal to all federal, state and local government web resources and services.